timestamp,surface_pressure_avg,surface_temp_avg,battery_voltage,lat,long
2020-12-22 00:09:01+00:00,230.6931,4.1,12.57,47.84626,-54.09684
2020-12-22 00:19:01+00:00,229.808,4.1,12.57,47.84626,-54.09684
2020-12-22 00:29:01+00:00,227.3514,4.1,12.57,47.84626,-54.09684
2020-12-22 00:39:01+00:00,227.2247,4.1,12.57,47.84626,-54.09684
2020-12-22 00:49:01+00:00,229.4464,4.09,12.57,47.84626,-54.09684
2020-12-22 00:59:01+00:00,230.3381,4.06,12.57,47.84626,-54.09684
2020-12-22 01:09:01+00:00,232.2097,4.0,12.57,47.84626,-54.09684
2020-12-22 01:19:01+00:00,235.7131,4.0,12.57,47.84626,-54.09684
2020-12-22 01:29:01+00:00,242.6397,4.0,12.57,47.84626,-54.09684
2020-12-22 01:39:01+00:00,247.9197,4.0,12.57,47.84626,-54.09684
2020-12-22 01:49:01+00:00,249.9081,4.0,12.57,47.84626,-54.09684
2020-12-22 01:59:01+00:00,250.258,4.0,12.57,47.84626,-54.09684
2020-12-22 02:09:01+00:00,256.3414,4.0,12.57,47.84626,-54.09684
2020-12-22 02:19:01+00:00,264.3814,4.01,12.57,47.84626,-54.09684
2020-12-22 02:29:01+00:00,265.823,4.05,12.57,47.84626,-54.09684
2020-12-22 02:39:01+00:00,264.7797,4.07,12.57,47.84626,-54.09684
2020-12-22 02:49:01+00:00,275.5181,4.07,12.57,47.84626,-54.09684
2020-12-22 02:59:01+00:00,287.5364,4.09,12.57,47.84626,-54.09684
2020-12-22 03:09:01+00:00,287.3814,4.09,12.57,47.84626,-54.09684
2020-12-22 03:19:01+00:00,289.1547,4.1,12.57,47.84626,-54.09684
2020-12-22 03:29:01+00:00,302.4464,4.1,12.57,47.84626,-54.09684
2020-12-22 03:39:01+00:00,310.098,4.1,12.57,47.84626,-54.09684
2020-12-22 03:49:01+00:00,309.9246,4.1,12.57,47.84626,-54.09684
2020-12-22 03:59:01+00:00,311.833,4.1,12.57,47.84626,-54.09684
2020-12-22 04:09:01+00:00,317.1763,4.1,12.57,47.84626,-54.09684
2020-12-22 04:19:01+00:00,317.6597,4.1,12.57,47.84626,-54.09684
2020-12-22 04:29:01+00:00,319.5447,4.1,12.57,47.84626,-54.09684
2020-12-22 04:39:01+00:00,318.978,4.1,12.57,47.84626,-54.09684
2020-12-22 04:49:01+00:00,318.743,4.1,12.57,47.84626,-54.09684
2020-12-22 04:59:01+00:00,317.4264,4.1,12.57,47.84626,-54.09684
2020-12-22 05:09:01+00:00,324.9996,4.09,12.57,47.84626,-54.09684
2020-12-22 05:19:01+00:00,326.9697,4.09,12.57,47.84626,-54.09684
2020-12-22 05:29:01+00:00,327.9847,4.09,12.57,47.84626,-54.09684
2020-12-22 05:39:01+00:00,323.8596,4.09,12.57,47.84626,-54.09684
2020-12-22 05:49:01+00:00,322.773,4.09,12.57,47.84626,-54.09684
2020-12-22 05:59:01+00:00,321.108,4.09,12.57,47.84626,-54.09684
2020-12-22 06:09:01+00:00,322.168,4.09,12.57,47.84626,-54.09684
2020-12-22 06:19:01+00:00,327.0729,4.1,12.57,47.84626,-54.09684
2020-12-22 06:29:01+00:00,331.483,4.1,12.57,47.84626,-54.09684
2020-12-22 06:39:01+00:00,326.2513,4.1,12.57,47.84626,-54.09684
2020-12-22 06:49:01+00:00,322.4847,4.1,12.57,47.84626,-54.09684
2020-12-22 06:59:01+00:00,325.8698,4.1,12.57,47.84626,-54.09684
2020-12-22 07:09:01+00:00,326.4197,4.1,12.57,47.84626,-54.09684
2020-12-22 07:19:01+00:00,318.158,4.1,12.57,47.84626,-54.09684
2020-12-22 07:29:01+00:00,313.2113,4.1,12.57,47.84626,-54.09684
2020-12-22 07:39:01+00:00,315.5347,4.1,12.57,47.84626,-54.09684
2020-12-22 07:49:01+00:00,307.8081,4.1,12.57,47.84626,-54.09684
2020-12-22 07:59:01+00:00,293.1547,4.1,12.57,47.84626,-54.09684
2020-12-22 08:09:01+00:00,292.9413,4.1,12.57,47.84626,-54.09684
2020-12-22 08:19:01+00:00,297.3281,4.1,12.57,47.84626,-54.09684
2020-12-22 08:29:01+00:00,294.2364,4.1,12.57,47.84626,-54.09684
2020-12-22 08:39:01+00:00,289.0247,4.1,12.57,47.84626,-54.09684
2020-12-22 08:49:01+00:00,291.5447,4.1,12.57,47.84626,-54.09684
2020-12-22 08:59:01+00:00,291.9714,4.1,12.57,47.84626,-54.09684
2020-12-22 09:09:01+00:00,282.2481,4.1,12.57,47.84626,-54.09684
2020-12-22 09:19:01+00:00,273.3531,4.1,12.57,47.84626,-54.09684
2020-12-22 09:29:01+00:00,275.4363,4.1,12.57,47.84626,-54.09684
2020-12-22 09:39:01+00:00,272.2981,4.1,12.57,47.84626,-54.09684
2020-12-22 09:49:01+00:00,263.4714,4.1,12.57,47.84626,-54.09684
2020-12-22 09:59:01+00:00,255.5831,4.1,12.57,47.84626,-54.09684
2020-12-22 10:09:01+00:00,256.8781,4.1,12.57,47.84626,-54.09684
2020-12-22 10:19:01+00:00,260.2247,4.1,12.57,47.84626,-54.09684
2020-12-22 10:29:01+00:00,265.4897,4.1,12.57,47.84626,-54.09684
2020-12-22 10:39:01+00:00,258.3481,4.12,12.57,47.84626,-54.09684
2020-12-22 10:49:01+00:00,263.3947,4.16,12.57,47.84626,-54.09684
2020-12-22 10:59:01+00:00,270.1214,4.17,12.57,47.84626,-54.09684
2020-12-22 11:09:01+00:00,269.3381,4.2,12.57,47.84626,-54.09684
2020-12-22 11:19:01+00:00,260.4631,4.2,12.57,47.84626,-54.09684
2020-12-22 11:29:01+00:00,267.933,4.2,12.57,47.84626,-54.09684
2020-12-22 11:39:01+00:00,269.7564,4.2,12.57,47.84626,-54.09684
2020-12-22 11:49:01+00:00,263.2281,4.23,12.57,47.84626,-54.09684
2020-12-22 11:59:01+00:00,258.7614,4.28,12.57,47.84626,-54.09684
2020-12-22 12:09:01+00:00,268.7164,4.29,12.57,47.84626,-54.09684
2020-12-22 12:19:01+00:00,268.1264,4.3,12.65,47.84626,-54.09684
2020-12-22 12:29:01+00:00,264.2697,4.3,12.65,47.84626,-54.09684
2020-12-22 12:39:01+00:00,267.0214,4.29,12.65,47.84626,-54.09684
2020-12-22 12:49:01+00:00,273.0398,4.3,12.65,47.84626,-54.09684
2020-12-22 12:59:01+00:00,263.3197,4.3,12.65,47.84626,-54.09684
2020-12-22 13:09:01+00:00,256.4098,4.3,12.65,47.84626,-54.09684
2020-12-22 13:19:01+00:00,259.1398,4.3,12.65,47.84626,-54.09684
2020-12-22 13:29:01+00:00,265.4997,4.3,12.65,47.84626,-54.09684
2020-12-22 13:39:01+00:00,274.1614,4.32,12.65,47.84626,-54.09684
2020-12-22 13:49:01+00:00,284.7497,4.4,12.65,47.84626,-54.09684
2020-12-22 13:59:01+00:00,289.7464,4.43,12.65,47.84626,-54.09684
2020-12-22 14:09:01+00:00,290.2997,4.48,12.65,47.84626,-54.09684
2020-12-22 14:19:01+00:00,296.2847,4.5,12.65,47.84626,-54.09684
2020-12-22 14:29:01+00:00,306.7913,4.5,12.65,47.84626,-54.09684
2020-12-22 14:39:01+00:00,309.3763,4.5,12.65,47.84626,-54.09684
2020-12-22 14:49:01+00:00,314.4163,4.5,12.65,47.84626,-54.09684
2020-12-22 14:59:01+00:00,323.4829,4.5,12.65,47.84626,-54.09684
2020-12-22 15:09:01+00:00,334.533,4.5,12.65,47.84626,-54.09684
2020-12-22 15:19:01+00:00,328.2813,4.5,12.65,47.84626,-54.09684
2020-12-22 15:29:01+00:00,324.8763,4.5,12.65,47.84626,-54.09684
2020-12-22 15:39:01+00:00,333.9697,4.51,12.65,47.84626,-54.09684
2020-12-22 15:49:01+00:00,343.80300000000005,4.54,12.65,47.84626,-54.09684
2020-12-22 15:59:01+00:00,344.8864,4.57,12.65,47.84626,-54.09684
2020-12-22 16:09:01+00:00,336.5713,4.55,12.65,47.84626,-54.09684
2020-12-22 16:19:01+00:00,331.4529,4.5,12.65,47.84626,-54.09684
2020-12-22 16:29:01+00:00,331.233,4.51,12.65,47.84626,-54.09684
2020-12-22 16:39:01+00:00,331.4264,4.55,12.65,47.84626,-54.09684
2020-12-22 16:49:01+00:00,339.653,4.59,12.65,47.84626,-54.09684
2020-12-22 16:59:01+00:00,341.2079,4.6,12.65,47.84626,-54.09684
2020-12-22 17:09:01+00:00,333.5947,4.6,12.65,47.84626,-54.09684
2020-12-22 17:19:01+00:00,331.9646,4.6,12.65,47.84626,-54.09684
2020-12-22 17:29:01+00:00,332.2213,4.6,12.65,47.84626,-54.09684
2020-12-22 17:39:01+00:00,335.9563,4.6,12.65,47.84626,-54.09684
2020-12-22 17:49:01+00:00,335.8063,4.6,12.65,47.84626,-54.09684
2020-12-22 17:59:01+00:00,340.5314,4.6,12.65,47.84626,-54.09684
2020-12-22 18:09:01+00:00,336.8864,4.63,12.65,47.84626,-54.09684
2020-12-22 18:19:01+00:00,326.7497,4.65,12.65,47.84626,-54.09684
2020-12-22 18:29:01+00:00,323.2097,4.65,12.65,47.84626,-54.09684
2020-12-22 18:39:01+00:00,325.5347,4.65,12.65,47.84626,-54.09684
2020-12-22 18:49:01+00:00,325.0731,4.65,12.65,47.84626,-54.09684
2020-12-22 18:59:01+00:00,319.3563,4.65,12.65,47.84626,-54.09684
2020-12-22 19:09:01+00:00,321.3147,4.65,12.65,47.84626,-54.09684
2020-12-22 19:19:01+00:00,324.3679,4.65,12.65,47.84626,-54.09684
2020-12-22 19:29:01+00:00,309.4829,4.65,12.65,47.84626,-54.09684
2020-12-22 19:39:01+00:00,297.508,4.66,12.65,47.84626,-54.09684
2020-12-22 19:49:01+00:00,303.2797,4.66,12.65,47.84626,-54.09684
2020-12-22 19:59:01+00:00,307.1697,4.66,12.65,47.84626,-54.09684
2020-12-22 20:09:01+00:00,296.0797,4.66,12.65,47.84626,-54.09684
2020-12-22 20:19:01+00:00,293.4297,4.64,12.65,47.84626,-54.09684
2020-12-22 20:29:01+00:00,299.0614,4.64,12.65,47.84626,-54.09684
2020-12-22 20:39:01+00:00,290.2147,4.65,12.65,47.84626,-54.09684
2020-12-22 20:49:01+00:00,278.9431,4.63,12.65,47.84626,-54.09684
2020-12-22 20:59:01+00:00,283.2681,4.64,12.65,47.84626,-54.09684
2020-12-22 21:09:01+00:00,280.4164,4.6,12.65,47.84626,-54.09684
2020-12-22 21:19:01+00:00,264.3248,4.6,12.57,47.84626,-54.09684
2020-12-22 21:29:01+00:00,256.863,4.6,12.57,47.84626,-54.09684
2020-12-22 21:39:01+00:00,256.7081,4.6,12.57,47.84626,-54.09684
2020-12-22 21:49:01+00:00,249.2115,4.6,12.57,47.84626,-54.09684
2020-12-22 21:59:01+00:00,234.9865,4.6,12.57,47.84626,-54.09684
2020-12-22 22:09:01+00:00,234.088,4.6,12.57,47.84626,-54.09684
2020-12-22 22:19:01+00:00,237.0831,4.6,12.57,47.84626,-54.09684
2020-12-22 22:29:01+00:00,223.8964,4.6,12.57,47.84626,-54.09684
2020-12-22 22:39:01+00:00,214.5481,4.6,12.57,47.84626,-54.09684
2020-12-22 22:49:01+00:00,224.2414,4.6,12.57,47.84626,-54.09684
2020-12-22 22:59:01+00:00,225.7347,4.59,12.57,47.84626,-54.09684
2020-12-22 23:09:01+00:00,215.6515,4.57,12.57,47.84626,-54.09684
2020-12-22 23:19:01+00:00,216.6414,4.57,12.57,47.84626,-54.09684
2020-12-22 23:29:01+00:00,219.6964,4.56,12.57,47.84626,-54.09684
2020-12-22 23:39:01+00:00,212.5048,4.55,12.57,47.84626,-54.09684
2020-12-22 23:49:01+00:00,211.1414,4.55,12.57,47.84626,-54.09684
2020-12-22 23:59:01+00:00,212.3948,4.55,12.57,47.84626,-54.09684
